Time,TemperatureF,DewpointF,PressureIn,WindDirection,WindDirectionDegrees,WindSpeedMPH,WindSpeedGustMPH,Humidity,HourlyPrecipIn,Conditions,Clouds,dailyrainin,SoftwareType,DateUTC
2013-07-16 00:08:00,81.6,73.0,30.15,SW,233,0.0,2.0,74,0.00,,,0.00,weatherlink.com 1.10,2013-07-16 04:08:00,
2013-07-16 00:23:00,81.5,73.0,30.15,SW,235,0.0,4.0,74,0.00,,,0.00,weatherlink.com 1.10,2013-07-16 04:23:00,
2013-07-16 00:38:00,81.3,73.0,30.15,West,281,0.0,3.0,75,0.00,,,0.00,weatherlink.com 1.10,2013-07-16 04:38:00,
2013-07-16 00:53:00,81.1,73.0,30.15,WNW,302,1.0,5.0,75,0.00,,,0.00,weatherlink.com 1.10,2013-07-16 04:53:00,
2013-07-16 01:08:00,81.0,72.0,30.15,WNW,290,0.0,5.0,75,0.00,,,0.00,weatherlink.com 1.10,2013-07-16 05:08:00,
2013-07-16 01:23:00,80.6,72.0,30.15,West,263,3.0,7.0,74,0.00,,,0.00,weatherlink.com 1.10,2013-07-16 05:23:00,
2013-07-16 01:38:00,80.3,71.0,30.15,West,273,5.0,7.0,72,0.00,,,0.00,weatherlink.com 1.10,2013-07-16 05:38:00,
2013-07-16 01:53:00,80.0,69.0,30.15,WSW,256,2.0,5.0,70,0.00,,,0.00,weatherlink.com 1.10,2013-07-16 05:53:00,
2013-07-16 02:08:00,79.6,69.0,30.15,NW,308,6.0,6.0,69,0.00,,,0.00,weatherlink.com 1.10,2013-07-16 06:08:00,
2013-07-16 02:23:00,79.2,68.0,30.15,WNW,285,0.0,4.0,69,0.00,,,0.00,weatherlink.com 1.10,2013-07-16 06:23:00,
2013-07-16 02:38:00,78.9,67.0,30.15,WNW,283,2.0,6.0,68,0.00,,,0.00,weatherlink.com 1.10,2013-07-16 06:38:00,
2013-07-16 02:53:00,78.8,67.0,30.15,North,1,1.0,5.0,67,0.00,,,0.00,weatherlink.com 1.10,2013-07-16 06:53:00,
2013-07-16 03:09:00,78.5,67.0,30.14,North,359,0.0,4.0,67,0.00,,,0.00,weatherlink.com 1.10,2013-07-16 07:09:00,
2013-07-16 03:24:00,78.2,66.0,30.14,NNW,342,0.0,5.0,67,0.00,,,0.00,weatherlink.com 1.10,2013-07-16 07:24:00,
2013-07-16 03:39:00,77.8,66.0,30.14,WSW,257,1.0,3.0,68,0.00,,,0.00,weatherlink.com 1.10,2013-07-16 07:39:00,
2013-07-16 03:54:00,77.7,66.0,30.14,West,264,0.0,4.0,67,0.00,,,0.00,weatherlink.com 1.10,2013-07-16 07:54:00,
2013-07-16 04:10:00,77.4,66.0,30.14,West,270,2.0,3.0,68,0.00,,,0.00,weatherlink.com 1.10,2013-07-16 08:10:00,
2013-07-16 04:24:00,77.2,66.0,30.14,WNW,297,1.0,5.0,68,0.00,,,0.00,weatherlink.com 1.10,2013-07-16 08:24:00,
2013-07-16 04:39:00,76.9,66.0,30.15,NNW,328,0.0,5.0,69,0.00,,,0.00,weatherlink.com 1.10,2013-07-16 08:39:00,
2013-07-16 04:54:00,76.6,66.0,30.15,WNW,283,2.0,6.0,69,0.00,,,0.00,weatherlink.com 1.10,2013-07-16 08:54:00,
2013-07-16 05:09:00,76.3,66.0,30.15,WSW,255,0.0,2.0,70,0.00,,,0.00,weatherlink.com 1.10,2013-07-16 09:09:00,
2013-07-16 05:24:00,76.3,66.0,30.16,WNW,288,1.0,4.0,70,0.00,,,0.00,weatherlink.com 1.10,2013-07-16 09:24:00,
2013-07-16 05:39:00,76.3,66.0,30.16,NW,307,0.0,4.0,70,0.00,,,0.00,weatherlink.com 1.10,2013-07-16 09:39:00,
2013-07-16 05:54:00,76.4,66.0,30.16,NW,308,1.0,4.0,71,0.00,,,0.00,weatherlink.com 1.10,2013-07-16 09:54:00,
2013-07-16 06:09:00,77.2,66.0,30.16,NNW,331,0.0,3.0,69,0.00,,,0.00,weatherlink.com 1.10,2013-07-16 10:09:00,
2013-07-16 06:24:00,77.4,66.0,30.16,WNW,301,1.0,4.0,69,0.00,,,0.00,weatherlink.com 1.10,2013-07-16 10:24:00,
2013-07-16 06:39:00,78.0,67.0,30.17,West,276,0.0,4.0,68,0.00,,,0.00,weatherlink.com 1.10,2013-07-16 10:39:00,
2013-07-16 06:54:00,78.5,67.0,30.17,West,274,2.0,4.0,67,0.00,,,0.00,weatherlink.com 1.10,2013-07-16 10:54:00,
2013-07-16 07:09:00,79.1,67.0,30.17,NNW,328,2.0,5.0,67,0.00,,,0.00,weatherlink.com 1.10,2013-07-16 11:09:00,
2013-07-16 07:24:00,80.4,67.0,30.18,NNW,338,4.0,5.0,64,0.00,,,0.00,weatherlink.com 1.10,2013-07-16 11:24:00,
2013-07-16 07:39:00,81.4,68.0,30.17,NNW,335,3.0,3.0,63,0.00,,,0.00,weatherlink.com 1.10,2013-07-16 11:39:00,
2013-07-16 07:54:00,81.7,67.0,30.18,West,262,0.0,4.0,62,0.00,,,0.00,weatherlink.com 1.10,2013-07-16 11:54:00,
2013-07-16 08:09:00,82.1,67.0,30.18,NW,323,1.0,5.0,61,0.00,,,0.00,weatherlink.com 1.10,2013-07-16 12:09:00,
2013-07-16 08:24:00,82.3,67.0,30.18,NW,304,3.0,10.0,61,0.00,,,0.00,weatherlink.com 1.10,2013-07-16 12:24:00,
2013-07-16 08:39:00,82.8,68.0,30.18,NW,320,2.0,8.0,61,0.00,,,0.00,weatherlink.com 1.10,2013-07-16 12:39:00,
2013-07-16 08:54:00,83.7,68.0,30.18,NW,326,6.0,6.0,60,0.00,,,0.00,weatherlink.com 1.10,2013-07-16 12:54:00,
2013-07-16 09:09:00,84.1,68.0,30.18,West,267,3.0,9.0,58,0.00,,,0.00,weatherlink.com 1.10,2013-07-16 13:09:00,
2013-07-16 09:24:00,84.7,68.0,30.17,North,349,0.0,6.0,58,0.00,,,0.00,weatherlink.com 1.10,2013-07-16 13:24:00,
2013-07-16 09:39:00,85.4,68.0,30.17,NW,304,2.0,6.0,56,0.00,,,0.00,weatherlink.com 1.10,2013-07-16 13:39:00,
2013-07-16 09:54:00,86.3,68.0,30.17,NNW,341,1.0,7.0,55,0.00,,,0.00,weatherlink.com 1.10,2013-07-16 13:54:00,
2013-07-16 10:09:00,87.0,68.0,30.17,West,260,3.0,8.0,54,0.00,,,0.00,weatherlink.com 1.10,2013-07-16 14:09:00,
2013-07-16 10:24:00,88.0,68.0,30.17,ENE,71,3.0,6.0,52,0.00,,,0.00,weatherlink.com 1.10,2013-07-16 14:24:00,
2013-07-16 10:39:00,88.1,68.0,30.17,WNW,285,0.0,6.0,51,0.00,,,0.00,weatherlink.com 1.10,2013-07-16 14:39:00,
2013-07-16 10:55:00,89.6,67.0,30.17,WNW,285,3.0,6.0,48,0.00,,,0.00,weatherlink.com 1.10,2013-07-16 14:55:00,
2013-07-16 11:10:00,88.9,66.0,30.16,SE,129,0.0,7.0,47,0.00,,,0.00,weatherlink.com 1.10,2013-07-16 15:10:00,
2013-07-16 11:25:00,89.9,66.0,30.16,NW,323,7.0,8.0,46,0.00,,,0.00,weatherlink.com 1.10,2013-07-16 15:25:00,
2013-07-16 11:40:00,90.0,67.0,30.16,NNW,340,5.0,9.0,47,0.00,,,0.00,weatherlink.com 1.10,2013-07-16 15:40:00,
2013-07-16 11:55:00,91.5,67.0,30.16,NW,308,5.0,6.0,45,0.00,,,0.00,weatherlink.com 1.10,2013-07-16 15:55:00,
2013-07-16 12:10:00,91.3,66.0,30.16,WNW,294,4.0,10.0,44,0.00,,,0.00,weatherlink.com 1.10,2013-07-16 16:10:00,
2013-07-16 12:25:00,92.3,67.0,30.16,SSW,208,1.0,10.0,43,0.00,,,0.00,weatherlink.com 1.10,2013-07-16 16:25:00,
2013-07-16 12:41:00,90.9,66.0,30.16,North,6,3.0,9.0,44,0.00,,,0.00,weatherlink.com 1.10,2013-07-16 16:41:00,
2013-07-16 12:55:00,92.1,67.0,30.16,NW,322,2.0,11.0,43,0.00,,,0.00,weatherlink.com 1.10,2013-07-16 16:55:00,
2013-07-16 13:10:00,92.5,68.0,30.15,NE,46,4.0,7.0,45,0.00,,,0.00,weatherlink.com 1.10,2013-07-16 17:10:00,
2013-07-16 13:25:00,90.8,67.0,30.15,WSW,256,8.0,13.0,45,0.00,,,0.00,weatherlink.com 1.10,2013-07-16 17:25:00,
2013-07-16 13:40:00,91.4,68.0,30.15,West,281,4.0,10.0,46,0.00,,,0.00,weatherlink.com 1.10,2013-07-16 17:40:00,
2013-07-16 13:56:00,90.4,69.0,30.15,East,94,6.0,10.0,50,0.00,,,0.00,weatherlink.com 1.10,2013-07-16 17:56:00,
2013-07-16 14:10:00,87.7,69.0,30.15,ESE,112,6.0,9.0,54,0.00,,,0.00,weatherlink.com 1.10,2013-07-16 18:10:00,
2013-07-16 14:25:00,87.5,69.0,30.15,NE,34,4.0,9.0,54,0.00,,,0.00,weatherlink.com 1.10,2013-07-16 18:25:00,
2013-07-16 14:40:00,87.8,70.0,30.15,East,96,0.0,8.0,55,0.00,,,0.00,weatherlink.com 1.10,2013-07-16 18:40:00,
2013-07-16 14:55:00,88.9,68.0,30.15,ENE,70,3.0,8.0,51,0.00,,,0.00,weatherlink.com 1.10,2013-07-16 18:55:00,
2013-07-16 15:25:00,87.4,68.0,30.15,SE,138,7.0,9.0,52,0.00,,,0.00,weatherlink.com 1.10,2013-07-16 19:25:00,
2013-07-16 15:40:00,86.9,68.0,30.15,ENE,70,7.0,10.0,53,0.00,,,0.00,weatherlink.com 1.10,2013-07-16 19:40:00,
2013-07-16 15:55:00,86.7,68.0,30.15,ESE,116,3.0,7.0,54,0.00,,,0.00,weatherlink.com 1.10,2013-07-16 19:55:00,
2013-07-16 16:10:00,85.6,67.0,30.15,ENE,63,9.0,9.0,54,0.00,,,0.00,weatherlink.com 1.10,2013-07-16 20:10:00,
2013-07-16 16:25:00,84.8,67.0,30.15,East,86,1.0,7.0,55,0.00,,,0.00,weatherlink.com 1.10,2013-07-16 20:25:00,
2013-07-16 16:40:00,85.6,66.0,30.15,East,85,4.0,9.0,53,0.00,,,0.00,weatherlink.com 1.10,2013-07-16 20:40:00,
2013-07-16 16:55:00,85.0,66.0,30.15,East,93,4.0,11.0,54,0.00,,,0.00,weatherlink.com 1.10,2013-07-16 20:55:00,
2013-07-16 17:10:00,84.6,66.0,30.15,East,95,8.0,10.0,54,0.00,,,0.00,weatherlink.com 1.10,2013-07-16 21:10:00,
2013-07-16 17:25:00,84.2,66.0,30.15,NE,47,7.0,8.0,54,0.00,,,0.00,weatherlink.com 1.10,2013-07-16 21:25:00,
2013-07-16 17:40:00,83.6,66.0,30.15,ENE,63,5.0,9.0,56,0.00,,,0.00,weatherlink.com 1.10,2013-07-16 21:40:00,
2013-07-16 17:55:00,83.7,66.0,30.15,NE,46,3.0,10.0,56,0.00,,,0.00,weatherlink.com 1.10,2013-07-16 21:55:00,
2013-07-16 18:10:00,84.8,66.0,30.15,East,86,1.0,7.0,54,0.00,,,0.00,weatherlink.com 1.10,2013-07-16 22:10:00,
2013-07-16 18:25:00,84.8,67.0,30.16,ENE,68,3.0,7.0,55,0.00,,,0.00,weatherlink.com 1.10,2013-07-16 22:25:00,
2013-07-16 18:40:00,84.3,66.0,30.16,WNW,291,1.0,7.0,54,0.00,,,0.00,weatherlink.com 1.10,2013-07-16 22:40:00,
2013-07-16 18:55:00,83.6,66.0,30.16,East,84,3.0,8.0,56,0.00,,,0.00,weatherlink.com 1.10,2013-07-16 22:55:00,
2013-07-16 19:10:00,83.1,66.0,30.16,ENE,68,4.0,7.0,56,0.00,,,0.00,weatherlink.com 1.10,2013-07-16 23:10:00,
2013-07-16 19:25:00,83.2,65.0,30.16,East,98,0.0,6.0,55,0.00,,,0.00,weatherlink.com 1.10,2013-07-16 23:25:00,
2013-07-16 19:40:00,82.5,66.0,30.17,East,94,4.0,9.0,57,0.00,,,0.00,weatherlink.com 1.10,2013-07-16 23:40:00,
2013-07-16 19:55:00,81.2,67.0,30.17,ENE,60,3.0,6.0,63,0.00,,,0.00,weatherlink.com 1.10,2013-07-16 23:55:00,
2013-07-16 20:10:00,80.3,67.0,30.18,ESE,113,2.0,4.0,65,0.00,,,0.00,weatherlink.com 1.10,2013-07-17 00:10:00,
2013-07-16 20:25:00,80.5,68.0,30.17,ESE,114,1.0,3.0,66,0.00,,,0.00,weatherlink.com 1.10,2013-07-17 00:25:00,
2013-07-16 20:40:00,80.2,69.0,30.18,NNW,346,1.0,4.0,69,0.00,,,0.00,weatherlink.com 1.10,2013-07-17 00:40:00,
2013-07-16 20:55:00,79.4,69.0,30.18,ENE,61,2.0,3.0,70,0.00,,,0.00,weatherlink.com 1.10,2013-07-17 00:55:00,
2013-07-16 21:10:00,79.6,69.0,30.19,ENE,76,0.0,3.0,69,0.00,,,0.00,weatherlink.com 1.10,2013-07-17 01:10:00,
2013-07-16 21:25:00,79.5,68.0,30.19,East,81,0.0,2.0,67,0.00,,,0.00,weatherlink.com 1.10,2013-07-17 01:25:00,
2013-07-16 21:40:00,80.0,67.0,30.19,ESE,121,2.0,2.0,65,0.00,,,0.00,weatherlink.com 1.10,2013-07-17 01:40:00,
2013-07-16 21:55:00,79.7,67.0,30.19,ENE,68,0.0,3.0,66,0.00,,,0.00,weatherlink.com 1.10,2013-07-17 01:55:00,
2013-07-16 22:10:00,79.8,67.0,30.20,ENE,64,1.0,3.0,65,0.00,,,0.00,weatherlink.com 1.10,2013-07-17 02:10:00,
2013-07-16 22:25:00,79.7,67.0,30.19,East,83,1.0,1.0,66,0.00,,,0.00,weatherlink.com 1.10,2013-07-17 02:25:00,
2013-07-16 22:40:00,80.0,68.0,30.19,ESE,113,0.0,1.0,66,0.00,,,0.00,weatherlink.com 1.10,2013-07-17 02:40:00,
2013-07-16 22:55:00,80.1,68.0,30.20,East,82,0.0,1.0,67,0.00,,,0.00,weatherlink.com 1.10,2013-07-17 02:55:00,
2013-07-16 23:10:00,80.0,68.0,30.20,SSE,158,0.0,2.0,67,0.00,,,0.00,weatherlink.com 1.10,2013-07-17 03:10:00,
2013-07-16 23:25:00,79.9,68.0,30.20,SSE,152,2.0,2.0,68,0.00,,,0.00,weatherlink.com 1.10,2013-07-17 03:25:00,
2013-07-16 23:40:00,79.7,68.0,30.20,ESE,121,0.0,1.0,68,0.00,,,0.00,weatherlink.com 1.10,2013-07-17 03:40:00,
2013-07-16 23:55:00,79.6,68.0,30.20,South,179,0.0,1.0,68,0.00,,,0.00,weatherlink.com 1.10,2013-07-17 03:55:00,